Time,TemperatureF,DewpointF,PressureIn,WindDirection,WindDirectionDegrees,WindSpeedMPH,WindSpeedGustMPH,Humidity,HourlyPrecipIn,Conditions,Clouds,dailyrainin,SoftwareType,DateUTC
2016-08-24 00:00:00,58.6,-99.9,-100.00,NNE,32,0.5,6.0,-999,-99.99,,---,0.00,VWS V14.01,2016-08-24 08:00:00,
2016-08-24 00:05:00,58.6,-99.9,-100.00,NNW,328,0.0,0.0,-999,-99.99,,---,0.00,VWS V14.01,2016-08-24 08:05:00,
2016-08-24 00:10:00,58.3,-99.9,-100.00,NE,37,2.3,2.7,-999,-99.99,,---,0.00,VWS V14.01,2016-08-24 08:10:00,
2016-08-24 00:15:00,58.6,-99.9,-100.00,NE,44,3.9,4.0,-999,-99.99,,---,0.00,VWS V14.01,2016-08-24 08:15:00,
2016-08-24 00:20:00,58.3,-99.9,-100.00,ENE,58,2.4,2.5,-999,-99.99,,---,0.00,VWS V14.01,2016-08-24 08:20:00,
2016-08-24 00:25:00,58.3,-99.9,-100.00,NNE,27,0.0,0.0,-999,-99.99,,---,0.00,VWS V14.01,2016-08-24 08:25:00,
2016-08-24 00:30:00,58.6,-99.9,-100.00,NE,34,1.2,1.9,-999,-99.99,,---,0.00,VWS V14.01,2016-08-24 08:30:00,
2016-08-24 00:35:00,57.2,-99.9,-100.00,NNE,13,1.2,3.7,-999,-99.99,,---,0.00,VWS V14.01,2016-08-24 08:35:00,
2016-08-24 00:40:00,58.3,-99.9,-100.00,ENE,76,1.5,2.9,-999,-99.99,,---,0.00,VWS V14.01,2016-08-24 08:40:00,
2016-08-24 00:45:00,58.3,-99.9,-100.00,NNE,27,1.3,1.9,-999,-99.99,,---,0.00,VWS V14.01,2016-08-24 08:45:00,
2016-08-24 00:50:00,58.6,-99.9,-100.00,NNE,22,3.3,4.2,-999,-99.99,,---,0.00,VWS V14.01,2016-08-24 08:50:00,
2016-08-24 00:55:00,58.6,-99.9,-100.00,NE,41,0.7,3.6,-999,-99.99,,---,0.00,VWS V14.01,2016-08-24 08:55:00,
2016-08-24 01:00:00,57.8,-99.9,-100.00,NNE,14,3.4,5.7,-999,-99.99,,---,0.00,VWS V14.01,2016-08-24 09:00:00,
2016-08-24 01:05:00,58.6,-99.9,-100.00,NNE,28,2.4,4.0,-999,-99.99,,---,0.00,VWS V14.01,2016-08-24 09:05:00,
2016-08-24 01:10:00,58.3,-99.9,-100.00,NNE,13,1.5,3.4,-999,-99.99,,---,0.00,VWS V14.01,2016-08-24 09:10:00,
2016-08-24 01:15:00,58.6,-99.9,-100.00,ENE,68,1.8,3.1,-999,-99.99,,---,0.00,VWS V14.01,2016-08-24 09:15:00,
2016-08-24 01:20:00,58.3,-99.9,-100.00,ESE,111,2.5,2.5,-999,-99.99,,---,0.00,VWS V14.01,2016-08-24 09:20:00,
2016-08-24 01:25:00,58.3,-99.9,-100.00,NNE,28,2.9,3.7,-999,-99.99,,---,0.00,VWS V14.01,2016-08-24 09:25:00,
2016-08-24 01:30:00,58.3,-99.9,-100.00,NE,39,2.8,3.0,-999,-99.99,,---,0.00,VWS V14.01,2016-08-24 09:30:00,
2016-08-24 01:35:00,58.1,-99.9,-100.00,NNE,30,4.9,6.1,-999,-99.99,,---,0.00,VWS V14.01,2016-08-24 09:35:00,
2016-08-24 01:40:00,58.3,-99.9,-100.00,NE,44,1.2,2.3,-999,-99.99,,---,0.00,VWS V14.01,2016-08-24 09:40:00,
2016-08-24 01:45:00,58.9,-99.9,-100.00,North,6,1.2,3.2,-999,-99.99,,---,0.00,VWS V14.01,2016-08-24 09:45:00,
2016-08-24 01:50:00,58.3,-99.9,-100.00,ENE,65,2.7,4.3,-999,-99.99,,---,0.00,VWS V14.01,2016-08-24 09:50:00,
2016-08-24 01:55:00,58.9,-99.9,-100.00,North,11,1.5,2.8,-999,-99.99,,---,0.00,VWS V14.01,2016-08-24 09:55:00,
2016-08-24 02:00:00,58.6,-99.9,-100.00,NNE,31,3.0,5.1,-999,-99.99,,---,0.00,VWS V14.01,2016-08-24 10:00:00,
2016-08-24 02:05:00,58.9,-99.9,-100.00,North,3,3.4,5.7,-999,-99.99,,---,0.00,VWS V14.01,2016-08-24 10:05:00,
2016-08-24 02:10:00,58.3,-99.9,-100.00,NE,34,4.2,4.2,-999,-99.99,,---,0.00,VWS V14.01,2016-08-24 10:10:00,
2016-08-24 02:15:00,58.3,-99.9,-100.00,NNW,346,1.2,3.1,-999,-99.99,,---,0.00,VWS V14.01,2016-08-24 10:15:00,
2016-08-24 02:20:00,58.9,-99.9,-100.00,NNE,32,2.9,4.5,-999,-99.99,,---,0.00,VWS V14.01,2016-08-24 10:20:00,
2016-08-24 02:30:00,58.6,-99.9,-100.00,North,6,3.2,4.6,-999,-99.99,,---,0.00,VWS V14.01,2016-08-24 10:30:00,
2016-08-24 02:35:00,58.6,-99.9,-100.00,ESE,104,1.4,2.5,-999,-99.99,,---,0.00,VWS V14.01,2016-08-24 10:35:00,
2016-08-24 02:40:00,58.6,-99.9,-100.00,NE,44,1.3,1.9,-999,-99.99,,---,0.00,VWS V14.01,2016-08-24 10:40:00,
2016-08-24 02:45:00,58.6,-99.9,-100.00,NNE,13,1.4,2.7,-999,-99.99,,---,0.00,VWS V14.01,2016-08-24 10:45:00,
2016-08-24 02:50:00,58.6,-99.9,-100.00,NNE,22,0.3,1.8,-999,-99.99,,---,0.00,VWS V14.01,2016-08-24 10:50:00,
2016-08-24 02:55:00,58.3,-99.9,-100.00,NNE,24,1.4,1.4,-999,-99.99,,---,0.00,VWS V14.01,2016-08-24 10:55:00,
2016-08-24 03:00:00,58.3,-99.9,-100.00,NNE,21,2.1,3.5,-999,-99.99,,---,0.00,VWS V14.01,2016-08-24 11:00:00,
2016-08-24 03:05:00,58.3,-99.9,-100.00,ENE,66,1.2,1.7,-999,-99.99,,---,0.00,VWS V14.01,2016-08-24 11:05:00,
2016-08-24 03:10:00,58.6,-99.9,-100.00,NE,41,4.7,4.8,-999,-99.99,,---,0.00,VWS V14.01,2016-08-24 11:10:00,
2016-08-24 03:15:00,58.3,-99.9,-100.00,NNE,20,6.4,6.4,-999,-99.99,,---,0.00,VWS V14.01,2016-08-24 11:15:00,
2016-08-24 03:20:00,58.3,-99.9,-100.00,NNE,14,4.3,6.0,-999,-99.99,,---,0.00,VWS V14.01,2016-08-24 11:20:00,
2016-08-24 03:25:00,58.3,-99.9,-100.00,NE,37,7.4,7.4,-999,-99.99,,---,0.00,VWS V14.01,2016-08-24 11:25:00,
2016-08-24 03:30:00,58.6,-99.9,-100.00,NNE,18,2.0,5.0,-999,-99.99,,---,0.00,VWS V14.01,2016-08-24 11:30:00,
2016-08-24 03:35:00,58.1,-99.9,-100.00,NE,44,4.0,4.3,-999,-99.99,,---,0.00,VWS V14.01,2016-08-24 11:35:00,
2016-08-24 03:40:00,58.6,-99.9,-100.00,ENE,75,1.6,2.7,-999,-99.99,,---,0.00,VWS V14.01,2016-08-24 11:40:00,
2016-08-24 03:45:00,58.3,-99.9,-100.00,ENE,65,2.7,2.7,-999,-99.99,,---,0.00,VWS V14.01,2016-08-24 11:45:00,
2016-08-24 03:50:00,58.6,-99.9,-100.00,WNW,300,1.8,3.9,-999,-99.99,,---,0.00,VWS V14.01,2016-08-24 11:50:00,
2016-08-24 03:55:00,58.3,-99.9,-100.00,East,97,1.4,2.6,-999,-99.99,,---,0.00,VWS V14.01,2016-08-24 11:55:00,
2016-08-24 04:00:00,58.6,-99.9,-100.00,NNE,32,2.2,4.6,-999,-99.99,,---,0.00,VWS V14.01,2016-08-24 12:00:00,
2016-08-24 04:05:00,58.6,-99.9,-100.00,NE,51,3.5,4.8,-999,-99.99,,---,0.00,VWS V14.01,2016-08-24 12:05:00,
2016-08-24 04:10:00,58.6,-99.9,-100.00,North,6,0.8,1.7,-999,-99.99,,---,0.00,VWS V14.01,2016-08-24 12:10:00,
2016-08-24 04:15:00,58.9,-99.9,-100.00,NE,53,1.9,2.1,-999,-99.99,,---,0.00,VWS V14.01,2016-08-24 12:15:00,
2016-08-24 04:20:00,58.6,-99.9,-100.00,WNW,292,0.0,0.7,-999,-99.99,,---,0.00,VWS V14.01,2016-08-24 12:20:00,
2016-08-24 04:25:00,58.3,-99.9,-100.00,West,267,0.0,0.0,-999,-99.99,,---,0.00,VWS V14.01,2016-08-24 12:25:00,
2016-08-24 04:30:00,58.6,-99.9,-100.00,ENE,63,3.9,5.3,-999,-99.99,,---,0.00,VWS V14.01,2016-08-24 12:30:00,
2016-08-24 04:35:00,58.3,-99.9,-100.00,NW,322,0.6,1.7,-999,-99.99,,---,0.00,VWS V14.01,2016-08-24 12:35:00,
2016-08-24 04:40:00,58.3,-99.9,-100.00,NE,39,1.3,1.3,-999,-99.99,,---,0.00,VWS V14.01,2016-08-24 12:40:00,
2016-08-24 04:45:00,58.1,-99.9,-100.00,ENE,69,3.2,3.2,-999,-99.99,,---,0.00,VWS V14.01,2016-08-24 12:45:00,
2016-08-24 04:50:00,58.1,-99.9,-100.00,East,83,3.2,4.3,-999,-99.99,,---,0.01,VWS V14.01,2016-08-24 12:50:00,
2016-08-24 04:55:00,58.3,-99.9,-100.00,NE,42,2.5,2.5,-999,-99.99,,---,0.01,VWS V14.01,2016-08-24 12:55:00,
2016-08-24 05:00:00,58.3,-99.9,-100.00,North,354,2.5,2.5,-999,-99.99,,---,0.01,VWS V14.01,2016-08-24 13:00:00,
2016-08-24 05:05:00,58.3,-99.9,-100.00,NE,41,3.7,3.9,-999,-99.99,,---,0.01,VWS V14.01,2016-08-24 13:05:00,
2016-08-24 05:10:00,58.3,-99.9,-100.00,North,7,0.6,0.9,-999,-99.99,,---,0.01,VWS V14.01,2016-08-24 13:10:00,
2016-08-24 05:15:00,58.3,-99.9,-100.00,North,8,0.0,0.0,-999,-99.99,,---,0.01,VWS V14.01,2016-08-24 13:15:00,
2016-08-24 05:20:00,58.3,-99.9,-100.00,SW,236,0.0,0.0,-999,-99.99,,---,0.01,VWS V14.01,2016-08-24 13:20:00,
2016-08-24 05:25:00,58.3,-99.9,-100.00,SW,236,0.0,0.0,-999,-99.99,,---,0.01,VWS V14.01,2016-08-24 13:25:00,
2016-08-24 05:30:00,58.1,-99.9,-100.00,SW,236,0.0,0.0,-999,-99.99,,---,0.01,VWS V14.01,2016-08-24 13:30:00,
2016-08-24 05:35:00,58.3,-99.9,-100.00,NNE,24,0.0,0.3,-999,-99.99,,---,0.01,VWS V14.01,2016-08-24 13:35:00,
2016-08-24 05:40:00,57.8,-99.9,-100.00,NNE,30,0.0,0.0,-999,-99.99,,---,0.01,VWS V14.01,2016-08-24 13:40:00,
2016-08-24 05:45:00,57.5,-99.9,-100.00,ESE,114,1.6,3.0,-999,-99.99,,---,0.01,VWS V14.01,2016-08-24 13:45:00,
2016-08-24 05:50:00,57.5,-99.9,-100.00,NE,41,1.7,3.5,-999,-99.99,,---,0.01,VWS V14.01,2016-08-24 13:50:00,
2016-08-24 05:55:00,57.8,-99.9,-100.00,East,100,0.5,2.1,-999,-99.99,,---,0.01,VWS V14.01,2016-08-24 13:55:00,
2016-08-24 06:00:00,57.5,-99.9,-100.00,NW,311,0.0,0.0,-999,-99.99,,---,0.01,VWS V14.01,2016-08-24 14:00:00,
2016-08-24 06:05:00,57.5,-99.9,-100.00,ESE,115,2.4,2.4,-999,-99.99,,---,0.01,VWS V14.01,2016-08-24 14:05:00,
2016-08-24 06:15:00,57.5,-99.9,-100.00,NE,38,0.0,0.0,-999,-99.99,,---,0.01,VWS V14.01,2016-08-24 14:15:00,
2016-08-24 06:20:00,57.8,-99.9,-100.00,NE,38,0.0,0.0,-999,-99.99,,---,0.01,VWS V14.01,2016-08-24 14:20:00,
2016-08-24 06:25:00,57.5,-99.9,-100.00,NE,38,0.0,0.0,-999,-99.99,,---,0.01,VWS V14.01,2016-08-24 14:25:00,
2016-08-24 06:35:00,57.5,-99.9,-100.00,NE,41,2.6,3.0,-999,-99.99,,---,0.01,VWS V14.01,2016-08-24 14:35:00,
2016-08-24 06:40:00,57.5,-99.9,-100.00,North,8,0.0,0.0,-999,-99.99,,---,0.01,VWS V14.01,2016-08-24 14:40:00,
2016-08-24 06:45:00,57.5,-99.9,-100.00,ENE,65,4.2,4.3,-999,-99.99,,---,0.02,VWS V14.01,2016-08-24 14:45:00,
2016-08-24 06:50:00,57.5,-99.9,-100.00,NNW,340,0.0,0.0,-999,-99.99,,---,0.02,VWS V14.01,2016-08-24 14:50:00,
2016-08-24 06:55:00,57.8,-99.9,-100.00,North,4,1.6,1.6,-999,-99.99,,---,0.02,VWS V14.01,2016-08-24 14:55:00,
2016-08-24 07:00:00,57.2,-99.9,-100.00,North,3,0.2,1.1,-999,-99.99,,---,0.02,VWS V14.01,2016-08-24 15:00:00,
2016-08-24 07:05:00,57.5,-99.9,-100.00,East,87,1.3,1.4,-999,-99.99,,---,0.02,VWS V14.01,2016-08-24 15:05:00,
2016-08-24 07:10:00,57.5,-99.9,-100.00,NE,39,3.7,3.7,-999,-99.99,,---,0.02,VWS V14.01,2016-08-24 15:10:00,
2016-08-24 07:15:00,57.8,-99.9,-100.00,ENE,73,1.2,1.6,-999,-99.99,,---,0.02,VWS V14.01,2016-08-24 15:15:00,
2016-08-24 07:20:00,57.5,-99.9,-100.00,ENE,68,2.5,3.7,-999,-99.99,,---,0.02,VWS V14.01,2016-08-24 15:20:00,
2016-08-24 07:25:00,57.5,-99.9,-100.00,NE,41,2.2,3.0,-999,-99.99,,---,0.02,VWS V14.01,2016-08-24 15:25:00,
2016-08-24 07:30:00,57.5,-99.9,-100.00,NNE,21,0.6,1.7,-999,-99.99,,---,0.02,VWS V14.01,2016-08-24 15:30:00,
2016-08-24 07:35:00,57.5,-99.9,-100.00,NNE,17,1.1,1.1,-999,-99.99,,---,0.02,VWS V14.01,2016-08-24 15:35:00,
2016-08-24 07:40:00,57.2,-99.9,-100.00,NW,311,1.2,2.1,-999,-99.99,,---,0.02,VWS V14.01,2016-08-24 15:40:00,
2016-08-24 07:45:00,57.8,-99.9,-100.00,NE,56,2.5,2.5,-999,-99.99,,---,0.02,VWS V14.01,2016-08-24 15:45:00,
2016-08-24 07:50:00,57.8,-99.9,-100.00,NE,44,3.9,4.2,-999,-99.99,,---,0.02,VWS V14.01,2016-08-24 15:50:00,
2016-08-24 07:55:00,57.5,-99.9,-100.00,ENE,59,2.2,3.5,-999,-99.99,,---,0.02,VWS V14.01,2016-08-24 15:55:00,
2016-08-24 08:00:00,57.2,-99.9,-100.00,NE,51,5.6,5.6,-999,-99.99,,---,0.02,VWS V14.01,2016-08-24 16:00:00,
2016-08-24 08:10:00,57.5,-99.9,-100.00,NE,56,4.0,4.6,-999,-99.99,,---,0.02,VWS V14.01,2016-08-24 16:10:00,
2016-08-24 08:15:00,57.5,-99.9,-100.00,NNE,14,1.9,4.3,-999,-99.99,,---,0.02,VWS V14.01,2016-08-24 16:15:00,
2016-08-24 08:20:00,58.1,-99.9,-100.00,NNE,32,3.1,4.3,-999,-99.99,,---,0.02,VWS V14.01,2016-08-24 16:20:00,
2016-08-24 08:25:00,57.8,-99.9,-100.00,NNE,28,1.2,2.7,-999,-99.99,,---,0.02,VWS V14.01,2016-08-24 16:25:00,
2016-08-24 08:30:00,57.8,-99.9,-100.00,North,7,2.0,3.9,-999,-99.99,,---,0.02,VWS V14.01,2016-08-24 16:30:00,
2016-08-24 08:35:00,58.3,-99.9,-100.00,NE,48,1.7,2.1,-999,-99.99,,---,0.02,VWS V14.01,2016-08-24 16:35:00,
2016-08-24 08:40:00,58.3,-99.9,-100.00,NE,41,2.2,2.3,-999,-99.99,,---,0.02,VWS V14.01,2016-08-24 16:40:00,
2016-08-24 08:45:00,58.1,-99.9,-100.00,NE,34,2.7,3.0,-999,-99.99,,---,0.02,VWS V14.01,2016-08-24 16:45:00,
2016-08-24 08:50:00,58.1,-99.9,-100.00,NE,46,0.0,0.0,-999,-99.99,,---,0.02,VWS V14.01,2016-08-24 16:50:00,
2016-08-24 08:55:00,58.1,-99.9,-100.00,NE,53,0.5,0.5,-999,-99.99,,---,0.02,VWS V14.01,2016-08-24 16:55:00,
2016-08-24 09:05:00,58.3,-99.9,-100.00,NE,41,0.0,0.0,-999,-99.99,,---,0.02,VWS V14.01,2016-08-24 17:05:00,
2016-08-24 09:10:00,58.1,-99.9,-100.00,NE,41,0.0,0.0,-999,-99.99,,---,0.02,VWS V14.01,2016-08-24 17:10:00,
2016-08-24 09:15:00,58.1,-99.9,-100.00,NE,41,0.0,0.0,-999,-99.99,,---,0.02,VWS V14.01,2016-08-24 17:15:00,
2016-08-24 09:20:00,58.6,-99.9,-100.00,NE,41,0.0,0.0,-999,-99.99,,---,0.02,VWS V14.01,2016-08-24 17:20:00,
2016-08-24 09:25:00,58.3,-99.9,-100.00,NNE,32,2.9,2.9,-999,-99.99,,---,0.02,VWS V14.01,2016-08-24 17:25:00,
2016-08-24 09:30:00,58.1,-99.9,-100.00,North,8,0.0,0.0,-999,-99.99,,---,0.02,VWS V14.01,2016-08-24 17:30:00,
2016-08-24 09:35:00,58.1,-99.9,-100.00,NNE,27,0.0,0.0,-999,-99.99,,---,0.02,VWS V14.01,2016-08-24 17:35:00,
2016-08-24 09:40:00,57.8,-99.9,-100.00,NNE,13,0.0,0.4,-999,-99.99,,---,0.03,VWS V14.01,2016-08-24 17:40:00,
2016-08-24 09:45:00,58.3,-99.9,-100.00,ENE,62,1.4,2.0,-999,-99.99,,---,0.03,VWS V14.01,2016-08-24 17:45:00,
2016-08-24 09:50:00,58.3,-99.9,-100.00,NE,37,0.0,0.0,-999,-99.99,,---,0.03,VWS V14.01,2016-08-24 17:50:00,
2016-08-24 09:55:00,58.3,-99.9,-100.00,NE,37,0.0,0.0,-999,-99.99,,---,0.03,VWS V14.01,2016-08-24 17:55:00,
2016-08-24 10:00:00,58.3,-99.9,-100.00,NE,55,1.7,2.1,-999,-99.99,,---,0.03,VWS V14.01,2016-08-24 18:00:00,
2016-08-24 10:05:00,58.1,-99.9,-100.00,ENE,62,0.0,0.0,-999,-99.99,,---,0.04,VWS V14.01,2016-08-24 18:05:00,
2016-08-24 10:10:00,58.1,-99.9,-100.00,NE,34,1.1,1.1,-999,-99.99,,---,0.04,VWS V14.01,2016-08-24 18:10:00,
2016-08-24 10:15:00,58.3,-99.9,-100.00,ENE,76,1.4,2.4,-999,-99.99,,---,0.04,VWS V14.01,2016-08-24 18:15:00,
2016-08-24 10:20:00,58.3,-99.9,-100.00,NW,308,0.4,0.7,-999,-99.99,,---,0.04,VWS V14.01,2016-08-24 18:20:00,
2016-08-24 10:29:00,58.3,-99.9,-100.00,South,169,0.0,0.0,-999,-99.99,,---,0.04,VWS V14.01,2016-08-24 18:29:00,
2016-08-24 10:34:00,58.3,-99.9,-100.00,NNE,17,1.5,1.5,-999,-99.99,,---,0.04,VWS V14.01,2016-08-24 18:34:00,
2016-08-24 10:39:00,58.3,-99.9,-100.00,NE,37,0.0,0.6,-999,-99.99,,---,0.04,VWS V14.01,2016-08-24 18:39:00,
2016-08-24 10:49:00,58.3,-99.9,-100.00,ENE,58,0.0,0.0,-999,-99.99,,---,0.04,VWS V14.01,2016-08-24 18:49:00,
2016-08-24 10:54:00,57.8,-99.9,-100.00,NNE,17,1.1,1.5,-999,-99.99,,---,0.04,VWS V14.01,2016-08-24 18:54:00,
2016-08-24 10:59:00,58.3,-99.9,-100.00,ENE,58,3.7,4.7,-999,-99.99,,---,0.04,VWS V14.01,2016-08-24 18:59:00,
2016-08-24 11:04:00,58.3,-99.9,-100.00,North,3,0.7,1.1,-999,-99.99,,---,0.04,VWS V14.01,2016-08-24 19:04:00,
2016-08-24 11:09:00,58.3,-99.9,-100.00,SE,129,1.4,2.0,-999,-99.99,,---,0.04,VWS V14.01,2016-08-24 19:09:00,
2016-08-24 11:14:00,58.6,-99.9,-100.00,NNE,28,2.5,3.1,-999,-99.99,,---,0.04,VWS V14.01,2016-08-24 19:14:00,
2016-08-24 11:19:00,58.6,-99.9,-100.00,ENE,60,0.2,0.4,-999,-99.99,,---,0.04,VWS V14.01,2016-08-24 19:19:00,
2016-08-24 11:24:00,58.3,-99.9,-100.00,NNE,31,4.3,4.4,-999,-99.99,,---,0.04,VWS V14.01,2016-08-24 19:24:00,
2016-08-24 11:29:00,59.1,-99.9,-100.00,NE,49,1.4,1.4,-999,-99.99,,---,0.04,VWS V14.01,2016-08-24 19:29:00,
2016-08-24 11:34:00,59.1,-99.9,-100.00,NNE,20,0.6,0.6,-999,-99.99,,---,0.04,VWS V14.01,2016-08-24 19:34:00,
2016-08-24 11:39:00,59.4,-99.9,-100.00,NE,35,0.0,0.0,-999,-99.99,,---,0.04,VWS V14.01,2016-08-24 19:39:00,
2016-08-24 11:44:00,59.1,-99.9,-100.00,West,271,0.0,0.0,-999,-99.99,,---,0.04,VWS V14.01,2016-08-24 19:44:00,
2016-08-24 11:49:00,59.1,-99.9,-100.00,WSW,246,0.0,0.0,-999,-99.99,,---,0.04,VWS V14.01,2016-08-24 19:49:00,
2016-08-24 11:59:00,59.1,-99.9,-100.00,ENE,59,0.9,0.9,-999,-99.99,,---,0.04,VWS V14.01,2016-08-24 19:59:00,
2016-08-24 12:04:00,59.1,-99.9,-100.00,WNW,300,0.0,0.0,-999,-99.99,,---,0.04,VWS V14.01,2016-08-24 20:04:00,
2016-08-24 12:09:00,59.8,-99.9,-100.00,SE,128,1.8,2.1,-999,-99.99,,---,0.04,VWS V14.01,2016-08-24 20:09:00,
2016-08-24 12:14:00,59.4,-99.9,-100.00,ENE,59,0.6,1.0,-999,-99.99,,---,0.04,VWS V14.01,2016-08-24 20:14:00,
2016-08-24 12:19:00,59.8,-99.9,-100.00,North,3,0.0,0.0,-999,-99.99,,---,0.04,VWS V14.01,2016-08-24 20:19:00,
2016-08-24 12:24:00,60.6,-99.9,-100.00,North,6,1.2,1.6,-999,-99.99,,---,0.04,VWS V14.01,2016-08-24 20:24:00,
2016-08-24 12:29:00,59.8,-99.9,-100.00,ENE,69,0.0,1.6,-999,-99.99,,---,0.04,VWS V14.01,2016-08-24 20:29:00,
2016-08-24 12:34:00,59.8,-99.9,-100.00,NE,45,0.9,3.1,-999,-99.99,,---,0.04,VWS V14.01,2016-08-24 20:34:00,
2016-08-24 12:39:00,60.1,-99.9,-100.00,NNE,17,0.9,2.4,-999,-99.99,,---,0.04,VWS V14.01,2016-08-24 20:39:00,
2016-08-24 12:44:00,59.8,-99.9,-100.00,North,4,1.0,2.2,-999,-99.99,,---,0.04,VWS V14.01,2016-08-24 20:44:00,
2016-08-24 12:49:00,59.8,-99.9,-100.00,NE,44,1.9,1.9,-999,-99.99,,---,0.04,VWS V14.01,2016-08-24 20:49:00,
2016-08-24 12:54:00,60.6,-99.9,-100.00,ENE,73,3.5,6.1,-999,-99.99,,---,0.04,VWS V14.01,2016-08-24 20:54:00,
2016-08-24 12:59:00,60.6,-99.9,-100.00,ENE,65,3.3,5.3,-999,-99.99,,---,0.04,VWS V14.01,2016-08-24 20:59:00,
2016-08-24 13:04:00,60.6,-99.9,-100.00,NE,45,4.4,4.6,-999,-99.99,,---,0.04,VWS V14.01,2016-08-24 21:04:00,
2016-08-24 13:09:00,61.2,-99.9,-100.00,NE,45,2.7,8.1,-999,-99.99,,---,0.04,VWS V14.01,2016-08-24 21:09:00,
2016-08-24 13:14:00,60.9,-99.9,-100.00,East,83,1.2,3.7,-999,-99.99,,---,0.04,VWS V14.01,2016-08-24 21:14:00,
2016-08-24 13:19:00,62.0,-99.9,-100.00,ENE,65,1.7,6.3,-999,-99.99,,---,0.04,VWS V14.01,2016-08-24 21:19:00,
2016-08-24 13:24:00,61.8,-99.9,-100.00,NNE,27,2.3,4.1,-999,-99.99,,---,0.04,VWS V14.01,2016-08-24 21:24:00,
2016-08-24 13:29:00,62.3,-99.9,-100.00,SW,222,1.6,4.3,-999,-99.99,,---,0.04,VWS V14.01,2016-08-24 21:29:00,
2016-08-24 13:34:00,62.3,-99.9,-100.00,NNE,31,6.2,7.1,-999,-99.99,,---,0.04,VWS V14.01,2016-08-24 21:34:00,
2016-08-24 13:39:00,62.0,-99.9,-100.00,ENE,66,3.1,9.3,-999,-99.99,,---,0.04,VWS V14.01,2016-08-24 21:39:00,
2016-08-24 13:44:00,63.2,-99.9,-100.00,ENE,72,0.0,4.7,-999,-99.99,,---,0.04,VWS V14.01,2016-08-24 21:44:00,
2016-08-24 13:49:00,63.2,-99.9,-100.00,ENE,59,2.3,3.3,-999,-99.99,,---,0.04,VWS V14.01,2016-08-24 21:49:00,
2016-08-24 13:54:00,63.4,-99.9,-100.00,NE,51,1.7,3.0,-999,-99.99,,---,0.04,VWS V14.01,2016-08-24 21:54:00,
2016-08-24 13:59:00,64.3,-99.9,-100.00,North,8,3.9,6.0,-999,-99.99,,---,0.04,VWS V14.01,2016-08-24 21:59:00,
2016-08-24 14:04:00,64.0,-99.9,-100.00,East,91,3.3,5.0,-999,-99.99,,---,0.04,VWS V14.01,2016-08-24 22:04:00,
2016-08-24 14:09:00,64.0,-99.9,-100.00,ENE,58,2.1,5.2,-999,-99.99,,---,0.04,VWS V14.01,2016-08-24 22:09:00,
2016-08-24 14:14:00,64.0,-99.9,-100.00,NNW,345,2.2,6.6,-999,-99.99,,---,0.04,VWS V14.01,2016-08-24 22:14:00,
2016-08-24 14:19:00,64.9,-99.9,-100.00,North,0,2.0,3.4,-999,-99.99,,---,0.04,VWS V14.01,2016-08-24 22:19:00,
2016-08-24 14:24:00,64.9,-99.9,-100.00,ENE,68,1.7,4.1,-999,-99.99,,---,0.04,VWS V14.01,2016-08-24 22:24:00,
2016-08-24 14:29:00,64.9,-99.9,-100.00,ENE,73,2.9,3.4,-999,-99.99,,---,0.04,VWS V14.01,2016-08-24 22:29:00,
2016-08-24 14:34:00,64.9,-99.9,-100.00,North,7,4.6,8.8,-999,-99.99,,---,0.04,VWS V14.01,2016-08-24 22:34:00,
2016-08-24 14:39:00,65.4,-99.9,-100.00,West,278,2.0,4.1,-999,-99.99,,---,0.04,VWS V14.01,2016-08-24 22:39:00,
2016-08-24 14:44:00,65.4,-99.9,-100.00,NE,38,2.9,5.8,-999,-99.99,,---,0.04,VWS V14.01,2016-08-24 22:44:00,
2016-08-24 14:49:00,66.0,-99.9,-100.00,East,83,0.0,0.0,-999,-99.99,,---,0.04,VWS V14.01,2016-08-24 22:49:00,
2016-08-24 14:54:00,65.7,-99.9,-100.00,SSE,148,2.2,2.4,-999,-99.99,,---,0.04,VWS V14.01,2016-08-24 22:54:00,
2016-08-24 14:59:00,65.7,-99.9,-100.00,WNW,290,2.1,2.1,-999,-99.99,,---,0.04,VWS V14.01,2016-08-24 22:59:00,
2016-08-24 15:04:00,66.0,-99.9,-100.00,NNW,342,0.0,0.0,-999,-99.99,,---,0.04,VWS V14.01,2016-08-24 23:04:00,
2016-08-24 15:09:00,65.7,-99.9,-100.00,NE,53,0.0,0.2,-999,-99.99,,---,0.04,VWS V14.01,2016-08-24 23:09:00,
2016-08-24 15:14:00,65.7,-99.9,-100.00,NNE,31,2.8,2.8,-999,-99.99,,---,0.04,VWS V14.01,2016-08-24 23:14:00,
2016-08-24 15:19:00,65.6,-99.9,-100.00,NNE,30,0.0,0.0,-999,-99.99,,---,0.04,VWS V14.01,2016-08-24 23:19:00,
2016-08-24 15:24:00,66.0,-99.9,-100.00,ENE,60,0.9,2.6,-999,-99.99,,---,0.04,VWS V14.01,2016-08-24 23:24:00,
2016-08-24 15:29:00,66.6,-99.9,-100.00,WSW,253,0.0,1.6,-999,-99.99,,---,0.04,VWS V14.01,2016-08-24 23:29:00,
2016-08-24 15:34:00,66.6,-99.9,-100.00,North,350,0.0,2.4,-999,-99.99,,---,0.04,VWS V14.01,2016-08-24 23:34:00,
2016-08-24 15:39:00,66.6,-99.9,-100.00,North,353,1.1,2.2,-999,-99.99,,---,0.04,VWS V14.01,2016-08-24 23:39:00,
2016-08-24 15:44:00,66.9,-99.9,-100.00,NE,44,0.0,1.0,-999,-99.99,,---,0.04,VWS V14.01,2016-08-24 23:44:00,
2016-08-24 15:49:00,66.9,-99.9,-100.00,NNE,27,1.3,2.5,-999,-99.99,,---,0.04,VWS V14.01,2016-08-24 23:49:00,
2016-08-24 15:54:00,67.1,-99.9,-100.00,NE,42,0.7,2.2,-999,-99.99,,---,0.04,VWS V14.01,2016-08-24 23:54:00,
2016-08-24 15:59:00,67.4,-99.9,-100.00,NE,41,0.0,1.1,-999,-99.99,,---,0.04,VWS V14.01,2016-08-24 23:59:00,
2016-08-24 16:04:00,67.4,-99.9,-100.00,ENE,63,0.0,0.0,-999,-99.99,,---,0.04,VWS V14.01,2016-08-25 00:04:00,
2016-08-24 16:09:00,68.3,-99.9,-100.00,ENE,63,0.0,0.0,-999,-99.99,,---,0.04,VWS V14.01,2016-08-25 00:09:00,
2016-08-24 16:14:00,67.1,-99.9,-100.00,NW,307,0.0,0.0,-999,-99.99,,---,0.04,VWS V14.01,2016-08-25 00:14:00,
2016-08-24 16:19:00,67.4,-99.9,-100.00,NNE,14,0.0,0.5,-999,-99.99,,---,0.04,VWS V14.01,2016-08-25 00:19:00,
2016-08-24 16:24:00,67.4,-99.9,-100.00,NE,34,0.0,0.0,-999,-99.99,,---,0.04,VWS V14.01,2016-08-25 00:24:00,
2016-08-24 16:29:00,67.4,-99.9,-100.00,ENE,72,3.5,4.1,-999,-99.99,,---,0.04,VWS V14.01,2016-08-25 00:29:00,
2016-08-24 16:34:00,67.1,-99.9,-100.00,NE,42,4.3,4.3,-999,-99.99,,---,0.04,VWS V14.01,2016-08-25 00:34:00,
2016-08-24 16:39:00,67.4,-99.9,-100.00,NE,34,2.3,3.9,-999,-99.99,,---,0.04,VWS V14.01,2016-08-25 00:39:00,
2016-08-24 16:44:00,67.4,-99.9,-100.00,North,3,0.0,0.0,-999,-99.99,,---,0.04,VWS V14.01,2016-08-25 00:44:00,
2016-08-24 16:49:00,67.4,-99.9,-100.00,NW,315,1.2,1.7,-999,-99.99,,---,0.04,VWS V14.01,2016-08-25 00:49:00,
2016-08-24 16:54:00,67.8,-99.9,-100.00,North,356,0.0,0.0,-999,-99.99,,---,0.04,VWS V14.01,2016-08-25 00:54:00,
2016-08-24 16:59:00,67.8,-99.9,-100.00,North,356,1.7,1.7,-999,-99.99,,---,0.04,VWS V14.01,2016-08-25 00:59:00,
2016-08-24 17:04:00,67.4,-99.9,-100.00,North,10,2.4,3.7,-999,-99.99,,---,0.04,VWS V14.01,2016-08-25 01:04:00,
2016-08-24 17:09:00,67.4,-99.9,-100.00,ENE,70,4.0,4.2,-999,-99.99,,---,0.04,VWS V14.01,2016-08-25 01:09:00,
2016-08-24 17:14:00,67.4,-99.9,-100.00,NNE,24,1.7,1.7,-999,-99.99,,---,0.04,VWS V14.01,2016-08-25 01:14:00,
2016-08-24 17:19:00,68.4,-99.9,-100.00,NE,51,0.0,1.4,-999,-99.99,,---,0.04,VWS V14.01,2016-08-25 01:19:00,
2016-08-24 17:24:00,68.3,-99.9,-100.00,ENE,63,3.5,3.5,-999,-99.99,,---,0.04,VWS V14.01,2016-08-25 01:24:00,
2016-08-24 17:29:00,68.3,-99.9,-100.00,NNE,25,2.9,3.0,-999,-99.99,,---,0.04,VWS V14.01,2016-08-25 01:29:00,
2016-08-24 17:34:00,68.4,-99.9,-100.00,West,260,0.0,1.2,-999,-99.99,,---,0.04,VWS V14.01,2016-08-25 01:34:00,
2016-08-24 17:39:00,68.3,-99.9,-100.00,West,260,0.0,0.0,-999,-99.99,,---,0.04,VWS V14.01,2016-08-25 01:39:00,
2016-08-24 17:44:00,67.4,-99.9,-100.00,North,8,0.0,0.0,-999,-99.99,,---,0.04,VWS V14.01,2016-08-25 01:44:00,
2016-08-24 17:49:00,68.0,-99.9,-100.00,North,8,0.0,0.0,-999,-99.99,,---,0.04,VWS V14.01,2016-08-25 01:49:00,
2016-08-24 17:54:00,68.3,-99.9,-100.00,NE,42,0.0,1.1,-999,-99.99,,---,0.04,VWS V14.01,2016-08-25 01:54:00,
2016-08-24 18:04:00,67.8,-99.9,-100.00,NE,42,0.0,0.0,-999,-99.99,,---,0.04,VWS V14.01,2016-08-25 02:04:00,
2016-08-24 18:09:00,67.1,-99.9,-100.00,NE,42,0.0,0.0,-999,-99.99,,---,0.04,VWS V14.01,2016-08-25 02:09:00,
2016-08-24 18:14:00,67.4,-99.9,-100.00,NE,42,0.0,0.0,-999,-99.99,,---,0.04,VWS V14.01,2016-08-25 02:14:00,
2016-08-24 18:19:00,67.4,-99.9,-100.00,NE,42,0.0,0.0,-999,-99.99,,---,0.04,VWS V14.01,2016-08-25 02:19:00,
2016-08-24 18:24:00,67.1,-99.9,-100.00,NE,38,0.0,0.0,-999,-99.99,,---,0.04,VWS V14.01,2016-08-25 02:24:00,
2016-08-24 18:29:00,67.8,-99.9,-100.00,North,1,0.0,0.0,-999,-99.99,,---,0.04,VWS V14.01,2016-08-25 02:29:00,
2016-08-24 18:34:00,67.4,-99.9,-100.00,NNE,31,0.0,0.0,-999,-99.99,,---,0.04,VWS V14.01,2016-08-25 02:34:00,
2016-08-24 18:39:00,67.1,-99.9,-100.00,NNE,31,0.0,0.0,-999,-99.99,,---,0.04,VWS V14.01,2016-08-25 02:39:00,
2016-08-24 18:44:00,67.4,-99.9,-100.00,NNE,31,0.0,0.0,-999,-99.99,,---,0.04,VWS V14.01,2016-08-25 02:44:00,
2016-08-24 18:49:00,67.1,-99.9,-100.00,NNE,31,0.0,0.0,-999,-99.99,,---,0.04,VWS V14.01,2016-08-25 02:49:00,
2016-08-24 18:54:00,67.1,-99.9,-100.00,NNE,31,0.0,0.0,-999,-99.99,,---,0.04,VWS V14.01,2016-08-25 02:54:00,
2016-08-24 18:59:00,67.4,-99.9,-100.00,NNE,31,0.0,0.0,-999,-99.99,,---,0.04,VWS V14.01,2016-08-25 02:59:00,
2016-08-24 19:04:00,66.6,-99.9,-100.00,NNE,31,0.0,0.0,-999,-99.99,,---,0.04,VWS V14.01,2016-08-25 03:04:00,
2016-08-24 19:09:00,67.1,-99.9,-100.00,NNE,31,0.0,0.0,-999,-99.99,,---,0.04,VWS V14.01,2016-08-25 03:09:00,
2016-08-24 19:14:00,66.6,-99.9,-100.00,NNE,31,0.0,0.0,-999,-99.99,,---,0.04,VWS V14.01,2016-08-25 03:14:00,
2016-08-24 19:19:00,66.6,-99.9,-100.00,NNW,346,1.5,2.2,-999,-99.99,,---,0.04,VWS V14.01,2016-08-25 03:19:00,
2016-08-24 19:29:00,66.6,-99.9,-100.00,NW,323,0.0,0.0,-999,-99.99,,---,0.04,VWS V14.01,2016-08-25 03:29:00,
2016-08-24 19:34:00,66.6,-99.9,-100.00,NW,323,0.0,0.0,-999,-99.99,,---,0.04,VWS V14.01,2016-08-25 03:34:00,
2016-08-24 19:39:00,66.0,-99.9,-100.00,NW,323,0.0,0.0,-999,-99.99,,---,0.04,VWS V14.01,2016-08-25 03:39:00,
2016-08-24 19:44:00,66.6,-99.9,-100.00,NW,323,0.0,0.0,-999,-99.99,,---,0.04,VWS V14.01,2016-08-25 03:44:00,
2016-08-24 19:49:00,66.0,-99.9,-100.00,NW,323,0.0,0.0,-999,-99.99,,---,0.04,VWS V14.01,2016-08-25 03:49:00,
2016-08-24 19:54:00,65.7,-99.9,-100.00,NW,323,0.0,0.0,-999,-99.99,,---,0.04,VWS V14.01,2016-08-25 03:54:00,
2016-08-24 19:59:00,65.7,-99.9,-100.00,NW,323,0.0,0.0,-999,-99.99,,---,0.04,VWS V14.01,2016-08-25 03:59:00,
2016-08-24 20:04:00,65.7,-99.9,-100.00,NW,323,0.0,0.0,-999,-99.99,,---,0.04,VWS V14.01,2016-08-25 04:04:00,
2016-08-24 20:09:00,65.4,-99.9,-100.00,NW,323,0.0,0.0,-999,-99.99,,---,0.04,VWS V14.01,2016-08-25 04:09:00,
2016-08-24 20:14:00,65.7,-99.9,-100.00,NW,323,0.0,0.0,-999,-99.99,,---,0.04,VWS V14.01,2016-08-25 04:14:00,
2016-08-24 20:19:00,65.4,-99.9,-100.00,NW,323,0.0,0.0,-999,-99.99,,---,0.04,VWS V14.01,2016-08-25 04:19:00,
2016-08-24 20:24:00,65.4,-99.9,-100.00,NW,323,0.0,0.0,-999,-99.99,,---,0.04,VWS V14.01,2016-08-25 04:24:00,
2016-08-24 20:29:00,65.7,-99.9,-100.00,NW,323,0.0,0.0,-999,-99.99,,---,0.04,VWS V14.01,2016-08-25 04:29:00,
2016-08-24 20:34:00,65.4,-99.9,-100.00,NW,323,0.0,0.0,-999,-99.99,,---,0.04,VWS V14.01,2016-08-25 04:34:00,
2016-08-24 20:39:00,65.1,-99.9,-100.00,NW,323,0.0,0.0,-999,-99.99,,---,0.04,VWS V14.01,2016-08-25 04:39:00,
2016-08-24 20:49:00,65.1,-99.9,-100.00,NW,323,0.0,0.0,-999,-99.99,,---,0.04,VWS V14.01,2016-08-25 04:49:00,
2016-08-24 20:59:00,64.9,-99.9,-100.00,NW,323,0.0,0.0,-999,-99.99,,---,0.04,VWS V14.01,2016-08-25 04:59:00,
2016-08-24 21:09:00,64.3,-99.9,-100.00,NW,323,0.0,0.0,-999,-99.99,,---,0.04,VWS V14.01,2016-08-25 05:09:00,
2016-08-24 21:14:00,64.0,-99.9,-100.00,NW,323,0.0,0.0,-999,-99.99,,---,0.04,VWS V14.01,2016-08-25 05:14:00,
2016-08-24 21:19:00,64.3,-99.9,-100.00,NW,323,0.0,0.0,-999,-99.99,,---,0.04,VWS V14.01,2016-08-25 05:19:00,
2016-08-24 21:24:00,64.3,-99.9,-100.00,NW,323,0.0,0.0,-999,-99.99,,---,0.04,VWS V14.01,2016-08-25 05:24:00,
2016-08-24 21:29:00,63.4,-99.9,-100.00,NW,323,0.0,0.0,-999,-99.99,,---,0.04,VWS V14.01,2016-08-25 05:29:00,
2016-08-24 21:33:00,64.0,-99.9,-100.00,NW,323,0.0,0.0,-999,-99.99,,---,0.04,VWS V14.01,2016-08-25 05:33:00,
2016-08-24 21:38:00,64.0,-99.9,-100.00,NW,323,0.0,0.0,-999,-99.99,,---,0.04,VWS V14.01,2016-08-25 05:38:00,